When you browse on this site, cookies collect data to enhance your experience and personalize the content and advertising you see.
Visit our Privacy Policy to learn more. By continuing to use the site, you agree to this use of cookies and data.
  • En España
  • Lista de países
  • Para 7 días
  • Temperatura del agua
  • Mapa Satelital
  • El tiempo en el mapa
  • Informadores
  • user-avatar
    Iniciar sesión

    Tiempo cada hora Graz

    Hoy, 20 Julio, Sábado

    Tiempo Temperatura Precipitaciones Viento Presión Humedad
    00:00 +19°C° 0 mm 1 mps 725 mmHg 89%
    01:00 +19°C° 0 mm 1 mps 725 mmHg 89%
    02:00 +18°C° 0 mm 1 mps 725 mmHg 89%
    03:00 +18°C° 0 mm 1 mps 725 mmHg 89%
    04:00 +18°C° 0 mm 1 mps 725 mmHg 89%
    05:00 +19°C° 0 mm 1 mps 725 mmHg 86%
    06:00 +20°C° 0 mm 1 mps 725 mmHg 84%
    07:00 +22°C° 0 mm 1 mps 725 mmHg 81%
    08:00 +24°C° 0 mm 1 mps 726 mmHg 70%
    09:00 +27°C° 0 mm 1 mps 726 mmHg 59%
    10:00 +29°C° 0 mm 1 mps 726 mmHg 48%
    11:00 +30°C° 0 mm 1 mps 726 mmHg 45%
    12:00 +31°C° 0 mm 2 mps 726 mmHg 42%
    13:00 +32°C° 0 mm 2 mps 726 mmHg 39%
    14:00 +32°C° 0 mm 2 mps 726 mmHg 39%
    15:00 +32°C° 0 mm 2 mps 725 mmHg 39%
    16:00 +32°C° 0 mm 2 mps 725 mmHg 39%
    17:00 +30°C° 0 mm 1 mps 725 mmHg 48%
    18:00 +28°C° 0 mm 1 mps 725 mmHg 57%
    19:00 +26°C° 0 mm 1 mps 725 mmHg 67%
    20:00 +25°C° 0 mm 1 mps 726 mmHg 68%
    21:00 +25°C° 0 mm 1 mps 726 mmHg 70%
    22:00 +24°C° 0 mm 1 mps 726 mmHg 71%
    23:00 +23°C° 0 mm 1 mps 726 mmHg 73%

    Mañana, 21 Julio, Domingo

    Tiempo Temperatura Precipitaciones Viento Presión Humedad
    00:00 +23°C° 0 mm 1 mps 726 mmHg 76%
    01:00 +22°C° 0 mm 1 mps 726 mmHg 78%
    02:00 +22°C° 0 mm 1 mps 726 mmHg 78%
    03:00 +21°C° 0 mm 1 mps 726 mmHg 79%
    04:00 +21°C° 0 mm 1 mps 726 mmHg 80%
    05:00 +22°C° 0 mm 1 mps 726 mmHg 77%
    06:00 +23°C° 0 mm 1 mps 727 mmHg 74%
    07:00 +25°C° 0 mm 1 mps 727 mmHg 71%
    08:00 +27°C° 0 mm 1 mps 727 mmHg 63%
    09:00 +29°C° 0 mm 1 mps 728 mmHg 56%
    10:00 +31°C° 0 mm 1 mps 728 mmHg 48%
    11:00 +31°C° 0.3 mm 1 mps 728 mmHg 47%
    12:00 +31°C° 0.3 mm 2 mps 728 mmHg 46%
    13:00 +32°C° 0.3 mm 2 mps 728 mmHg 45%
    14:00 +31°C° 0.7 mm 2 mps 728 mmHg 52%
    15:00 +30°C° 0.7 mm 2 mps 728 mmHg 59%
    16:00 +28°C° 0.7 mm 1 mps 728 mmHg 66%
    17:00 +26°C° 2.7 mm 1 mps 728 mmHg 75%
    18:00 +24°C° 2.7 mm 1 mps 728 mmHg 84%
    19:00 +22°C° 2.7 mm 1 mps 728 mmHg 93%
    20:00 +21°C° 0.3 mm 1 mps 729 mmHg 93%
    21:00 +21°C° 0.3 mm 1 mps 729 mmHg 92%
    22:00 +20°C° 0.3 mm 1 mps 730 mmHg 92%
    23:00 +20°C° 0 mm 1 mps 730 mmHg 92%

    Pasado mañana, 22 Julio, Lunes

    Tiempo Temperatura Precipitaciones Viento Presión Humedad
    00:00 +20°C° 0 mm 1 mps 730 mmHg 91%
    01:00 +19°C° 0 mm 2 mps 730 mmHg 91%
    02:00 +19°C° 0 mm 1 mps 730 mmHg 91%
    03:00 +19°C° 0 mm 1 mps 730 mmHg 91%
    04:00 +19°C° 0 mm 1 mps 730 mmHg 90%
    05:00 +20°C° 0 mm 1 mps 730 mmHg 88%
    06:00 +21°C° 0 mm 1 mps 730 mmHg 86%
    07:00 +20°C° 0 mm 0 mps 730 mmHg 83%
    08:00 +24°C° 0 mm 1 mps 731 mmHg 73%
    09:00 +26°C° 0 mm 1 mps 731 mmHg 64%
    10:00 +28°C° 0 mm 1 mps 731 mmHg 54%
    11:00 +29°C° 0.1 mm 1 mps 731 mmHg 54%
    12:00 +29°C° 0.1 mm 1 mps 731 mmHg 53%
    13:00 +30°C° 0.1 mm 1 mps 730 mmHg 53%
    14:00 +29°C° 0.1 mm 1 mps 730 mmHg 53%
    15:00 +29°C° 0.1 mm 1 mps 730 mmHg 54%
    16:00 +29°C° 0.1 mm 1 mps 730 mmHg 54%
    17:00 +28°C° 0.2 mm 1 mps 730 mmHg 63%
    18:00 +26°C° 0.2 mm 1 mps 730 mmHg 73%
    19:00 +22°C° 0.2 mm 0 mps 729 mmHg 82%
    20:00 +21°C° 0 mm 0 mps 730 mmHg 84%
    21:00 +20°C° 0 mm 0 mps 730 mmHg 85%
    22:00 +21°C° 0 mm 1 mps 730 mmHg 87%
    23:00 +21°C° 0 mm 1 mps 730 mmHg 88%

    23 Julio, Martes

    Tiempo Temperatura Precipitaciones Viento Presión Humedad
    00:00 +20°C° 0 mm 1 mps 730 mmHg 88%
    01:00 +20°C° 0 mm 1 mps 730 mmHg 89%
    02:00 +20°C° 0 mm 1 mps 729 mmHg 89%
    03:00 +19°C° 0 mm 1 mps 729 mmHg 89%
    04:00 +19°C° 0 mm 1 mps 729 mmHg 89%
    05:00 +18°C° 0 mm 0 mps 729 mmHg 87%
    06:00 +19°C° 0 mm 0 mps 729 mmHg 84%
    07:00 +20°C° 0 mm 0 mps 729 mmHg 82%
    08:00 +22°C° 0 mm 0 mps 730 mmHg 72%
    09:00 +26°C° 0 mm 1 mps 730 mmHg 62%
    10:00 +29°C° 0 mm 1 mps 730 mmHg 52%
    11:00 +29°C° 0 mm 1 mps 729 mmHg 51%
    12:00 +29°C° 0 mm 1 mps 729 mmHg 50%
    13:00 +29°C° 0 mm 1 mps 729 mmHg 48%
    14:00 +29°C° 0 mm 1 mps 728 mmHg 50%
    15:00 +29°C° 0 mm 2 mps 728 mmHg 52%
    16:00 +29°C° 0 mm 2 mps 728 mmHg 53%
    17:00 +27°C° 0.1 mm 1 mps 728 mmHg 61%
    18:00 +26°C° 0.1 mm 1 mps 728 mmHg 69%
    19:00 +24°C° 0.1 mm 1 mps 728 mmHg 76%
    20:00 +23°C° 0 mm 1 mps 728 mmHg 78%
    21:00 +21°C° 0 mm 0 mps 728 mmHg 79%
    22:00 +20°C° 0 mm 0 mps 729 mmHg 81%
    23:00 +19°C° 0 mm 0 mps 728 mmHg 81%

    24 Julio, Miércoles

    Tiempo Temperatura Precipitaciones Viento Presión Humedad
    00:00 +19°C° 0 mm 0 mps 728 mmHg 81%
    01:00 +18°C° 0 mm 0 mps 728 mmHg 81%
    02:00 +18°C° 0 mm 0 mps 728 mmHg 81%
    03:00 +17°C° 0 mm 0 mps 728 mmHg 82%
    04:00 +19°C° 0 mm 1 mps 727 mmHg 82%
    05:00 +18°C° 0 mm 0 mps 728 mmHg 78%
    06:00 +19°C° 0 mm 0 mps 728 mmHg 74%
    07:00 +21°C° 0 mm 0 mps 728 mmHg 70%
    08:00 +23°C° 0 mm 0 mps 728 mmHg 64%
    09:00 +27°C° 0 mm 1 mps 728 mmHg 58%
    10:00 +29°C° 0 mm 1 mps 728 mmHg 52%
    11:00 +29°C° 0 mm 1 mps 728 mmHg 49%
    12:00 +30°C° 0 mm 1 mps 728 mmHg 46%
    13:00 +31°C° 0 mm 2 mps 728 mmHg 44%
    14:00 +30°C° 0 mm 2 mps 727 mmHg 45%
    15:00 +30°C° 0 mm 2 mps 727 mmHg 46%
    16:00 +30°C° 0 mm 2 mps 727 mmHg 47%
    17:00 +28°C° 0 mm 2 mps 727 mmHg 55%
    18:00 +27°C° 0 mm 1 mps 727 mmHg 63%
    19:00 +25°C° 0 mm 1 mps 727 mmHg 72%
    20:00 +24°C° 0 mm 1 mps 727 mmHg 74%
    21:00 +23°C° 0 mm 1 mps 727 mmHg 76%
    22:00 +22°C° 0 mm 1 mps 728 mmHg 79%
    23:00 +21°C° 0 mm 1 mps 728 mmHg 79%

    25 Julio, Jueves

    Tiempo Temperatura Precipitaciones Viento Presión Humedad
    00:00 +21°C° 0 mm 1 mps 727 mmHg 80%
    01:00 +20°C° 0 mm 1 mps 727 mmHg 80%
    02:00 +20°C° 0 mm 1 mps 727 mmHg 81%
    03:00 +20°C° 0 mm 1 mps 727 mmHg 81%
    04:00 +19°C° 0 mm 1 mps 727 mmHg 82%
    05:00 +21°C° 0 mm 1 mps 727 mmHg 77%
    06:00 +20°C° 0 mm 0 mps 728 mmHg 72%
    07:00 +22°C° 0 mm 0 mps 728 mmHg 67%
    08:00 +26°C° 0 mm 1 mps 728 mmHg 60%
    09:00 +27°C° 0 mm 1 mps 728 mmHg 54%
    10:00 +29°C° 0 mm 1 mps 728 mmHg 47%
    11:00 +30°C° 0 mm 1 mps 728 mmHg 45%
    12:00 +31°C° 0 mm 2 mps 728 mmHg 42%
    13:00 +31°C° 0 mm 2 mps 727 mmHg 39%
    14:00 +31°C° 0 mm 2 mps 727 mmHg 40%
    15:00 +31°C° 0 mm 2 mps 727 mmHg 41%
    16:00 +31°C° 0 mm 2 mps 726 mmHg 42%
    17:00 +29°C° 0 mm 2 mps 726 mmHg 52%
    18:00 +27°C° 0 mm 1 mps 726 mmHg 61%
    19:00 +25°C° 0 mm 1 mps 726 mmHg 70%
    20:00 +24°C° 0 mm 1 mps 726 mmHg 72%
    21:00 +23°C° 0 mm 1 mps 726 mmHg 75%
    22:00 +20°C° 0 mm 0 mps 727 mmHg 77%
    23:00 +19°C° 0 mm 0 mps 726 mmHg 78%
    Mostrar más